STARLINK-4304 (53414 NORAD) Tracking and Keplerian Element Data

This shows tracking and keplerian element data for the satellite.

Feedback or suggestion? Click here.




ElementValue
Catalog53414
NameSTARLINK-4304
Epoch Orbit130
Epoch Day269.91667824
Epoch Year2022
RAAN13.0558
Inclination53.2186
Eccentricity0.0001889
Argument of Perigee38.5858
Mean Anonmoly169.2551
Mean Motion15.49905202
Decay Rate-0.00025988
L11 53414U 22097AC 22269.91667824 -.00025988 00000+0 -45108-3 0 9995
L22 53414 53.2186 13.0558 0001889 38.5858 169.2551 15.49905202 1309

Live tracking and technical data element details for STARLINK-4304 (NORAD 53414). STARLINK-4304 can be tracked NOW for your location showing map with azimuth and elevation plus other details from your city location.

Track the satellite on the map from your city or location and see movement details for azimuth, elevation, latitude, longitude, range, height, and movement on the map or in text.







IsCatalogInMostPopularTable: catalog: 53414, numindb: 2
Update: records affected: 1



GetName: 53414 STARLINK-4304

Hit Count: updated at: Wed, 28 Sep 2022 23:23:40 GMT